OE9XVI-6 Weather Reports


time (UTC)temp
C
wind
direction
speed
KPH
gust
KPH
rain 1hr
cm
rain 24hr
cm
rain mn
cm
humidity
%
barometer
mb
20260507052649 6 323 0.0 1.6 0.00 0.15 0.10 88 1013.5
20260507051649 6 136 1.6 4.8 0.00 0.15 0.10 86 1013.3
20260507050649 6 127 3.2 6.4 0.00 0.15 0.10 87 1013.2
20260507045649 6 213 0.0 0.0 0.00 0.15 0.10 87 1013.0
20260507044649 5 171 0.0 0.0 0.00 0.15 0.10 87 1012.9
20260507043649 5 171 0.0 0.0 0.00 0.15 0.10 88 1012.8
20260507042649 5 203 0.0 0.0 0.00 0.15 0.10 89 1012.6
20260507041649 5 203 0.0 0.0 0.00 0.15 0.10 90 1012.6
20260507040649 5 247 0.0 3.2 0.00 0.15 0.10 91 1012.6
20260507035649 5 237 1.6 3.2 0.00 0.15 0.10 92 1012.5
20260507034649 5 136 0.0 0.0 0.00 0.15 0.10 94 1012.6
20260507033649 5 136 0.0 0.0 0.00 0.15 0.10 91 1012.5
20260507032649 5 136 0.0 0.0 0.00 0.15 0.10 87 1012.3
20260507031649 5 136 0.0 0.0 0.00 0.15 0.10 88 1012.3
20260507030649 5 210 1.6 3.2 0.00 0.15 0.10 88 1012.3
20260507025649 5 181 0.0 4.8 0.00 0.15 0.10 87 1012.3
20260507024649 5 158 3.2 4.8 0.00 0.15 0.10 86 1012.2
20260507023649 5 291 0.0 0.0 0.00 0.15 0.10 86 1012.2
20260507022649 5 156 3.2 6.4 0.00 0.15 0.10 87 1012.2
20260507021649 6 111 0.0 3.2 0.00 0.15 0.10 86 1012.1
20260507020649 5 282 0.0 1.6 0.00 0.15 0.10 87 1012.2
20260507015649 6 303 0.0 0.0 0.00 0.15 0.10 88 1012.1
20260507014649 5 303 0.0 0.0 0.00 0.15 0.10 89 1012.0
20260507013649 5 303 0.0 0.0 0.00 0.15 0.10 91 1011.9
20260507012649 5 316 1.6 6.4 0.00 0.15 0.10 93 1011.9
20260507011649 5 317 4.8 8.0 0.00 0.15 0.10 93 1011.9
20260507010649 6 310 6.4 6.4 0.00 0.15 0.10 86 1011.8
20260507005649 5 293 0.0 0.0 0.00 0.15 0.10 87 1011.8
20260507004649 6 293 0.0 1.6 0.00 0.15 0.10 86 1011.8
20260507003649 6 136 0.0 0.0 0.03 0.15 0.10 85 1011.9
20260507002649 6 142 0.0 1.6 0.05 0.15 0.10 84 1011.8
20260507001649 6 171 0.0 1.6 0.05 0.15 0.10 85 1011.6
20260507000649 6 130 0.0 0.0 0.08 0.15 0.10 85 1011.8
20260506235649 6 130 0.0 0.0 0.08 0.15 0.10 84 1011.6
20260506234849 6 130 0.0 0.0 0.10 0.15 0.10 85 1011.8
20260506234649 6 130 0.0 0.0 0.10 0.15 0.10 85 1011.8
20260506233649 6 196 1.6 12.9 0.08 0.13 0.08 85 1011.8
20260506232649 6 203 0.0 9.7 0.05 0.10 0.05 85 1011.9
20260506231649 6 126 3.2 9.7 0.05 0.10 0.05 85 1011.8
20260506230649 6 149 8.0 9.7 0.03 0.08 0.03 86 1011.8
20260506225649 7 146 3.2 9.7 0.03 0.08 0.03 87 1011.8
20260506224649 7 296 0.0 3.2 0.00 0.05 0.00 86 1011.8
20260506223649 7 307 0.0 3.2 0.00 0.05 0.05 83 1011.6
20260506222649 7 151 0.0 3.2 0.00 0.05 0.05 81 1011.6
20260506221650 7 160 3.2 4.8 0.00 0.05 0.05 79 1011.6
20260506220650 7 116 0.0 0.0 0.00 0.05 0.05 80 1011.6
20260506215650 7 116 0.0 0.0 0.00 0.05 0.05 80 1011.5
20260506214650 7 63 0.0 0.0 0.00 0.05 0.05 80 1011.4
20260506213650 7 87 1.6 1.6 0.00 0.05 0.05 80 1011.3
20260506212650 7 232 0.0 0.0 0.00 0.05 0.05 79 1011.4
20260506211650 8 232 0.0 3.2 0.00 0.05 0.05 79 1011.3
20260506210650 8 87 0.0 3.2 0.00 0.05 0.05 79 1011.3
20260506205650 8 158 3.2 4.8 0.00 0.05 0.05 80 1011.3
20260506204650 7 293 0.0 0.0 0.00 0.05 0.05 82 1011.2
20260506203650 7 293 0.0 1.6 0.00 0.05 0.05 83 1011.2
20260506202650 8 319 0.0 0.0 0.00 0.05 0.05 78 1011.2
20260506201650 8 150 0.0 0.0 0.00 0.05 0.05 75 1011.1
20260506200650 9 165 0.0 0.0 0.00 0.05 0.05 74 1010.9
20260506195650 9 165 0.0 0.0 0.00 0.05 0.05 73 1010.9
20260506194650 10 165 0.0 3.2 0.00 0.05 0.05 72 1010.9
20260506193650 10 45 0.0 0.0 0.00 0.05 0.05 71 1010.7
20260506192650 10 45 0.0 1.6 0.00 0.05 0.05 69 1010.6
20260506191650 10 80 0.0 1.6 0.00 0.05 0.05 69 1010.5
20260506190650 11 146 0.0 0.0 0.00 0.05 0.05 69 1010.5
20260506185650 11 146 0.0 0.0 0.00 0.05 0.05 65 1010.1
20260506184650 12 160 0.0 4.8 0.00 0.05 0.05 62 1010.0
20260506183650 14 160 0.0 1.6 0.00 0.05 0.05 58 1009.9
20260506182650 17 147 0.0 1.6 0.00 0.05 0.05 51 1009.8
20260506181650 22 137 3.2 4.8 0.00 0.05 0.05 44 1009.7
20260506180650 23 151 0.0 0.0 0.00 0.05 0.05 44 1009.7
20260506175650 22 105 0.0 6.4 0.00 0.05 0.05 49 1009.5
20260506174650 18 306 0.0 3.2 0.00 0.05 0.05 59 1009.4
20260506173650 11 282 3.2 14.5 0.00 0.05 0.05 81 1009.4
20260506172650 8 267 0.0 6.4 0.00 0.05 0.05 86 1009.3
20260506171650 8 320 8.0 8.0 0.00 0.05 0.05 84 1009.3
20260506170650 10 336 4.8 9.7 0.00 0.05 0.05 77 1009.1
20260506165650 11 4 1.6 6.4 0.00 0.05 0.05 67 1009.1
20260506164650 11 286 0.0 9.7 0.00 0.05 0.05 71 1009.0
20260506163650 15 324 11.3 14.5 0.00 0.05 0.05 46 1008.7
20260506162650 21 167 0.0 4.8 0.00 0.05 0.05 44 1008.7
20260506161650 17 188 0.0 8.0 0.00 0.05 0.05 76 1008.7
20260506160650 10 133 4.8 11.3 0.03 0.05 0.05 81 1008.6
20260506155650 8 225 4.8 9.7 0.05 0.05 0.05 84 1008.6
20260506154650 7 261 0.0 9.7 0.05 0.05 0.05 83 1008.7
20260506153650 7 334 6.4 12.9 0.05 0.05 0.05 83 1008.7
20260506152650 7 136 8.0 20.9 0.05 0.05 0.05 85 1008.5
20260506151650 7 157 12.9 17.7 0.05 0.05 0.05 86 1008.3
20260506150650 7 164 17.7 22.5 0.03 0.03 0.03 84 1008.5
20260506145650 8 129 12.9 29.0 0.00 0.00 0.00 78 1007.8
20260506144650 10 143 12.9 27.4 0.00 0.00 0.00 71 1007.8
20260506143650 11 147 16.1 17.7 0.00 0.00 0.00 71 1007.6
20260506142650 11 140 14.5 16.1 0.00 0.00 0.00 70 1007.6
20260506141650 11 274 12.9 12.9 0.00 0.00 0.00 69 1007.6
20260506140650 11 265 6.4 14.5 0.00 0.00 0.00 79 1007.9
20260506135650 12 329 6.4 12.9 0.00 0.00 0.00 77 1007.6
20260506134650 14 317 12.9 14.5 0.00 0.00 0.00 64 1007.4
20260506133650 14 347 4.8 6.4 0.00 0.00 0.00 65 1007.4
20260506132650 16 327 4.8 8.0 0.00 0.00 0.00 62 1007.3
20260506131651 15 305 0.0 4.8 0.00 0.00 0.00 66 1007.3
20260506130651 15 133 0.0 4.8 0.00 0.00 0.00 67 1007.2
20260506125651 15 192 0.0 3.2 0.00 0.00 0.00 61 1007.2
20260506124651 15 104 0.0 11.3 0.00 0.00 0.00 71 1007.0
20260506123651 13 149 1.6 1.6 0.00 0.00 0.00 74 1007.0
20260506122651 13 317 1.6 6.4 0.00 0.00 0.00 70 1007.1
20260506121651 14 26 0.0 1.6 0.00 0.00 0.00 72 1007.0
20260506120651 13 331 1.6 6.4 0.00 0.00 0.00 76 1006.7
20260506115651 12 67 6.4 11.3 0.00 0.00 0.00 76 1007.0
20260506114651 11 286 1.6 9.7 0.00 0.00 0.00 79 1007.2
20260506113651 11 326 4.8 14.5 0.00 0.00 0.00 78 1007.2
20260506112651 11 322 1.6 6.4 0.00 0.00 0.00 78 1007.1
20260506111651 11 119 11.3 12.9 0.00 0.00 0.00 79 1006.7
20260506110651 11 286 0.0 9.7 0.00 0.00 0.00 81 1006.9
20260506105651 11 333 4.8 9.7 0.00 0.00 0.00 83 1006.7
20260506104651 11 336 6.4 11.3 0.00 0.00 0.00 84 1006.7
20260506103651 11 348 6.4 11.3 0.00 0.00 0.00 85 1006.9
20260506102651 11 0 1.6 4.8 0.00 0.00 0.00 74 1006.9
20260506101651 11 309 3.2 8.0 0.00 0.00 0.00 71 1007.1
20260506100651 12 300 0.0 1.6 0.00 0.00 0.00 74 1007.2
20260506095651 11 66 3.2 3.2 0.00 0.00 0.00 78 1007.1
20260506094651 11 327 4.8 9.7 0.00 0.00 0.00 77 1007.6
20260506093651 11 317 3.2 8.0 0.00 0.00 0.00 77 1007.2
20260506092651 11 326 11.3 11.3 0.00 0.00 0.00 74 1007.2
20260506091651 11 317 9.7 17.7 0.00 0.00 0.00 74 1007.0
20260506090651 11 307 9.7 12.9 0.00 0.00 0.00 75 1007.0
20260506085651 10 291 4.8 12.9 0.00 0.00 0.00 75 1007.0
20260506084651 10 330 4.8 12.9 0.00 0.00 0.00 76 1007.2
20260506083651 11 338 4.8 14.5 0.00 0.00 0.00 75 1007.1
20260506082651 11 330 1.6 3.2 0.00 0.00 0.00 77 1007.0
20260506081651 10 330 1.6 6.4 0.00 0.00 0.00 79 1007.3
20260506080651 10 33 0.0 8.0 0.00 0.00 0.00 79 1007.2
20260506072651 10 336 3.2 6.4 0.00 0.00 0.00 78 1007.1
20260506071651 10 345 0.0 6.4 0.00 0.00 0.00 76 1007.1
20260506070651 10 278 0.0 4.8 0.00 0.00 0.00 77 1007.1
20260506061651 10 136 3.2 4.8 0.00 0.00 0.00 76 1007.2
20260506060651 10 115 0.0 1.6 0.00 0.00 0.00 77 1007.3